[[{"header":{"parameterUnit":"m.s-1","parameterCategory":1,"la1":30.2991,"la2":30.254,"lo1":-89.0895,"lo2":-89.0444,"dy":0.0017,"dx":0.0017,"nx":28,"ny":28,"refTime":"2024-08-23T09:00:00:Z","depth":0,"parameterNumber":2,"parameterNumberName":"U-component_of_WINDS"},"data":[0,0,0,0,0,0,0,0,0,0,0,0,0,0,0,0,0,0,0,0,0,0,0,0,0,0,0,0,0,0,0,0,0,0,0,0,0,0,0,0,0,0,0,0,0,0,0,0,0,0,0,0,0,0,0,0,0,0,-5.7761,-5.7761,0,-5.779,-5.779,-5.779,-5.7745,-5.7743,-5.7742,-5.774,-5.7768,-5.777,-5.7773,0,0,0,0,0,0,0,0,0,0,0,0,0,-5.7668,-5.767,-5.7761,-5.7761,-5.7762,-5.779,-5.779,-5.779,-5.7745,-5.7743,-5.7742,-5.774,-5.7768,-5.777,-5.7773,0,0,0,0,0,0,0,0,0,0,0,0,0,-5.7704,-5.7671,-5.7761,-5.7743,-5.7741,-5.779,-5.779,-5.779,-5.7746,-5.7743,-5.7741,-5.7739,-5.7767,-5.777,-5.7773,-5.784,0,0,-5.7783,-5.7785,0,0,0,0,0,0,0,0,-5.7702,-5.7707,-5.7745,-5.7744,-5.7743,-5.7761,-5.7767,-5.7807,-5.7746,-5.7744,-5.774,-5.7738,-5.7768,-5.7771,-5.7781,-5.7841,-5.7843,-5.7783,-5.7785,-5.7787,-5.7788,0,0,0,0,0,0,0,-5.7699,-5.7706,-5.7772,-5.7746,-5.7744,-5.7733,-5.7736,-5.7775,-5.7769,-5.7744,-5.7741,-5.7745,-5.7767,-5.7778,-5.7782,-5.7843,-5.7783,-5.7786,-5.7788,-5.779,-5.7961,-5.7963,0,0,0,0,0,0,-5.7699,-5.7704,-5.7771,-5.7773,-5.7716,-5.7737,-5.774,-5.7758,-5.7768,-5.7767,-5.7747,-5.7743,-5.7774,-5.7778,-5.7782,-5.7861,-5.7787,-5.779,-5.7792,-5.7958,-5.7961,-5.7964,0,0,0,0,0,0,-5.7697,-5.7706,-5.777,-5.7738,-5.7745,-5.7741,-5.7762,-5.7759,-5.7771,-5.777,-5.7769,-5.776,-5.7772,-5.7778,-5.7826,-5.7861,-5.7791,-5.7794,-5.7955,-5.7959,-5.7963,-5.8019,0,0,0,0,0,0,-5.7695,-5.7705,-5.773,-5.7739,-5.7747,-5.7813,-5.7764,-5.7762,-5.7777,-5.7772,-5.7782,-5.7781,-5.7771,-5.7822,-5.783,-5.7865,-5.7797,-5.7952,-5.7957,-5.7962,-5.8014,-5.8024,-5.8033,0,0,0,0,0,-5.7692,-5.7744,-5.7732,-5.774,-5.7778,-5.7816,-5.782,-5.7807,-5.778,-5.7805,-5.7805,-5.7781,-5.7857,-5.7827,-5.7836,-5.7872,-5.795,-5.7956,-5.7961,-5.801,-5.8022,-5.8033,0,0,0,0,0,0,-5.7738,-5.7745,-5.7731,-5.7788,-5.7802,-5.7808,-5.7839,-5.7821,-5.7843,-5.7837,-5.782,-5.7823,-5.7875,-5.7879,-5.7845,-5.7938,-5.7899,-5.7907,-5.7933,-5.7945,-5.7954,-5.795,-5.78,0,0,0,0,0,-5.7756,-5.7786,-5.779,-5.784,-5.7848,-5.7843,-5.7858,-5.7848,-5.7861,-5.7866,-5.787,-5.7884,-5.7911,-5.7929,-5.7953,-5.8016,-5.8017,-5.8046,-5.8055,-5.8063,-5.8069,-5.8102,-5.8115,-5.7983,-5.7983,-5.7983,0,0,-5.7791,-5.7798,-5.7818,-5.7849,-5.7859,-5.789,-5.7847,-5.7882,-5.7905,-5.7871,-5.7917,-5.7921,-5.7935,-5.7991,-5.8016,-5.7996,-5.8106,-5.8071,-5.8077,-5.8078,-5.811,-5.8122,-5.8133,-5.7987,-5.7986,-5.7986,0,0,-5.787,-5.7879,-5.7922,-5.7933,-5.7948,-5.7945,-5.7956,-5.7966,-5.7967,-5.8014,-5.7989,-5.8017,-5.8064,-5.8075,-5.8087,-5.8176,-5.8154,-5.8185,-5.8233,-5.8266,-5.8277,-5.8286,-5.8316,-5.8327,-5.8192,-5.8192,-5.8192,0,-5.7911,-5.7957,-5.7946,-5.7982,-5.7997,-5.7971,-5.8014,-5.8025,-5.8048,-5.8059,-5.8037,-5.8097,-5.8105,-5.8163,-5.8185,-5.8196,-5.8207,-5.8181,-5.8276,-5.8285,-5.8294,-5.8322,-5.8333,-5.8195,-5.8195,-5.8194,-5.8194,0,-5.8006,-5.8039,-5.8072,-5.8096,-5.8115,-5.8155,-5.8149,-5.817,-5.816,-5.8159,-5.8207,-5.8217,-5.8243,-5.8257,-5.8247,-5.8315,-5.8302,-5.8279,-5.8238,-5.831,-5.8336,-5.8347,-5.82,-5.8199,-5.8198,-5.8197,0,0,-5.8111,-5.8131,-5.8142,-5.8153,-5.8171,-5.8196,-5.8236,-5.8263,-5.828,-5.8299,-5.8331,-5.8374,-5.8353,-5.8367,-5.8358,-5.8388,-5.8456,-5.8361,-5.8361,-5.8376,-5.8531,-5.8545,-5.8558,-5.8444,-5.8446,-5.8447,-5.8529,0,-5.8188,-5.8256,-5.8249,-5.8314,-5.8344,-5.8321,-5.8356,-5.8371,-5.8373,-5.8399,-5.8401,-5.8431,-5.8402,-5.8411,-5.8439,-5.8441,-5.8486,-5.8436,-5.8472,-5.8473,-5.8465,-5.8572,-5.8588,-5.8663,-5.8539,-5.8541,-5.8542,0,-5.8286,-5.8309,-5.8377,-5.8391,-5.8404,-5.8435,-5.846,-5.8486,-5.8503,-5.8502,-5.852,-5.8507,-5.8547,-5.851,-5.8565,-5.8531,-5.8546,-5.855,-5.8553,-5.8553,-5.8509,-5.8572,-5.8688,-5.8698,-5.8559,-5.8557,-5.8556,0,-5.8353,-5.8401,-5.8448,-5.8459,-5.8477,-5.8499,-5.8508,-5.8523,-5.8541,-5.8563,-5.8574,-5.8602,-5.8616,-5.8637,-5.8632,-5.8606,-5.8689,-5.8651,-5.8688,-5.8689,-5.8703,-5.8702,-5.882,-5.8719,-5.8719,-5.8718,-5.8718,0,-5.8438,-5.848,-5.8479,-5.8507,-5.8554,-5.8547,-5.8593,-5.86,-5.8614,-5.8643,-5.8627,-5.8655,-5.8648,-5.8676,-5.8673,-5.8719,-5.8726,-5.8727,-5.8724,-5.8726,-5.8726,-5.8733,-5.8726,-5.8721,-5.8721,-5.872,-5.872,0,-5.8519,-5.852,-5.8569,-5.8584,-5.8589,-5.8622,-5.8635,-5.8662,-5.8665,-5.8702,-5.8711,-5.8714,-5.8747,-5.8745,-5.8782,-5.878,-5.8836,-5.883,-5.883,-5.8828,-5.8865,-5.886,-5.8989,-5.9005,-5.8896,-5.8897,-5.8898,0,-5.8571,-5.8603,-5.8622,-5.8641,-5.8652,-5.8683,-5.8701,-5.8696,-5.8716,-5.874,-5.8764,-5.8796,-5.882,-5.8874,-5.8879,-5.8908,-5.89,-5.8944,-5.8904,-5.8905,-5.8898,-5.8895,-5.8898,-5.895,-5.8951,-5.8952,-5.8953,0,-5.8664,-5.8663,-5.869,-5.8719,-5.8741,-5.8763,-5.8783,-5.88,-5.8798,-5.8821,-5.8855,-5.8874,-5.8913,-5.8944,-5.8972,-5.8981,-5.8967,-5.8966,-5.8976,-5.8976,-5.8974,-5.8974,-5.8848,-5.8962,-5.8961,-5.896,-5.896,-5.896,-5.873,-5.8758,-5.8776,-5.8807,-5.8822,-5.8842,-5.8869,-5.8876,-5.8904,-5.8935,-5.8932,-5.8969,-5.8988,-5.9024,-5.9036,-5.9066,-5.905,-5.9065,-5.9068,-5.9071,-5.9074,-5.8973,-5.9071,-5.9071,-5.9071,-5.9071,-5.9071,0,-5.882,-5.8831,-5.8861,-5.889,-5.8915,-5.8902,-5.8924,-5.8946,-5.8979,-5.8998,-5.9024,-5.9063,-5.9094,-5.9104,-5.9135,-5.9156,-5.9151,-5.9164,-5.9161,-5.9163,-5.9087,-5.9075,-5.9169,-5.9169,-5.9169,-5.9169,-5.9168,-5.9168,-5.8869,-5.8915,-5.8918,-5.8972,-5.8983,-5.902,-5.9034,-5.9053,-5.9068,-5.9113,-5.9139,-5.9146,-5.9162,-5.9194,-5.9222,-5.9224,-5.9235,-5.9251,-5.925,-5.9178,-5.9168,-5.9159,-5.9147,-5.9254,-5.9254,-5.9323,-5.9324,-5.9324]},{"header":{"parameterUnit":"m.s-1","parameterCategory":1,"la1":30.2991,"la2":30.254,"lo1":-89.0895,"lo2":-89.0444,"dy":0.0017,"dx":0.0017,"nx":28,"ny":28,"refTime":"2024-08-23T09:00:00:Z","depth":0,"parameterNumber":3,"parameterNumberName":"V-component_of_WINDS"},"data":[0,0,0,0,0,0,0,0,0,0,0,0,0,0,0,0,0,0,0,0,0,0,0,0,0,0,0,0,0,0,0,0,0,0,0,0,0,0,0,0,0,0,0,0,0,0,0,0,0,0,0,0,0,0,0,0,0,0,3.7015,3.7015,0,3.7061,3.7061,3.7062,3.7094,3.7094,3.7094,3.7094,3.7138,3.7138,3.7139,0,0,0,0,0,0,0,0,0,0,0,0,0,3.6953,3.6954,3.7015,3.7015,3.7016,3.706,3.7061,3.7062,3.7094,3.7094,3.7094,3.7095,3.7137,3.7138,3.7139,0,0,0,0,0,0,0,0,0,0,0,0,0,3.6987,3.6954,3.7015,3.7037,3.704,3.706,3.7061,3.7062,3.7094,3.7094,3.7094,3.7095,3.7137,3.7138,3.714,3.714,0,0,3.7144,3.7144,0,0,0,0,0,0,0,0,3.6985,3.6989,3.7033,3.7036,3.7039,3.7072,3.7055,3.7088,3.7093,3.7073,3.7094,3.7095,3.7115,3.7118,3.7126,3.7142,3.7144,3.7144,3.7145,3.7145,3.7146,0,0,0,0,0,0,0,3.6983,3.6987,3.7033,3.7034,3.7037,3.7044,3.705,3.7061,3.7091,3.7075,3.7077,3.7082,3.7117,3.7125,3.7127,3.7145,3.7144,3.7145,3.7146,3.7146,3.7166,3.7165,0,0,0,0,0,0,3.6977,3.6985,3.7031,3.7034,3.7012,3.7045,3.7051,3.7061,3.7091,3.7096,3.7082,3.7084,3.7122,3.7126,3.7129,3.7133,3.7145,3.7147,3.7147,3.7166,3.7166,3.7165,0,0,0,0,0,0,3.6976,3.6981,3.7029,3.701,3.7017,3.7046,3.7056,3.7061,3.7069,3.7097,3.7102,3.7085,3.7123,3.7127,3.7138,3.7135,3.7147,3.7148,3.7166,3.7166,3.7165,3.7139,0,0,0,0,0,0,3.6974,3.698,3.6981,3.701,3.7018,3.7038,3.7056,3.7062,3.7072,3.7075,3.7101,3.7105,3.7123,3.7136,3.7139,3.7137,3.7149,3.7167,3.7166,3.7165,3.7141,3.7138,3.7136,0,0,0,0,0,3.6971,3.6971,3.6981,3.6986,3.702,3.7038,3.7042,3.7064,3.7072,3.7073,3.7091,3.7105,3.7135,3.7136,3.7141,3.7139,3.7167,3.7166,3.7166,3.7142,3.7139,3.7136,0,0,0,0,0,0,3.6938,3.6975,3.6986,3.6995,3.7014,3.7043,3.7045,3.706,3.7075,3.7076,3.7101,3.7107,3.7115,3.7128,3.713,3.7142,3.7153,3.7153,3.7133,3.713,3.7128,3.7124,3.7151,0,0,0,0,0,3.6932,3.6945,3.6976,3.698,3.6989,3.7015,3.7024,3.704,3.7059,3.7066,3.7085,3.7102,3.7116,3.7124,3.7137,3.7143,3.7149,3.7144,3.7141,3.7139,3.7139,3.7144,3.7142,3.7163,3.7163,3.7163,0,0,3.6919,3.6941,3.6947,3.6974,3.699,3.7002,3.7021,3.7033,3.7042,3.7067,3.7079,3.7094,3.7115,3.7123,3.7128,3.7134,3.7135,3.7138,3.7137,3.7137,3.7143,3.7141,3.714,3.7162,3.7163,3.7163,0,0,3.6902,3.6919,3.6926,3.6942,3.6967,3.6985,3.6987,3.7015,3.7026,3.7039,3.7059,3.707,3.7092,3.7107,3.7117,3.7108,3.7122,3.7112,3.7099,3.7104,3.7102,3.7101,3.7098,3.7097,3.7111,3.7111,3.7111,0,3.6882,3.6902,3.6927,3.6938,3.695,3.6976,3.6983,3.6997,3.7024,3.7032,3.7038,3.7069,3.7084,3.7098,3.7096,3.7103,3.7106,3.7109,3.7101,3.71,3.7099,3.7097,3.7095,3.711,3.711,3.711,3.7111,0,3.6877,3.689,3.6893,3.6921,3.6933,3.6942,3.6968,3.6977,3.6992,3.7009,3.7023,3.7043,3.7062,3.7067,3.708,3.7082,3.7086,3.7096,3.7108,3.7095,3.7094,3.7093,3.7108,3.7109,3.7109,3.7109,0,0,3.6838,3.6882,3.6882,3.6896,3.6927,3.6937,3.6948,3.6968,3.6976,3.6994,3.7003,3.7023,3.7034,3.7046,3.7062,3.7066,3.7059,3.7076,3.7077,3.7073,3.7063,3.7055,3.7053,3.7068,3.7068,3.7068,3.7061,0,3.6825,3.6847,3.6871,3.6884,3.6897,3.6923,3.6932,3.6952,3.6968,3.6982,3.7,3.7014,3.7027,3.7034,3.704,3.7058,3.7057,3.7059,3.7077,3.7077,3.7071,3.7052,3.7043,3.7036,3.7061,3.7061,3.7061,0,3.6813,3.6833,3.6847,3.6879,3.6885,3.6893,3.6915,3.6927,3.695,3.6962,3.6977,3.6994,3.7006,3.7017,3.7034,3.7035,3.7044,3.7055,3.7055,3.7057,3.7068,3.7054,3.7034,3.7033,3.706,3.706,3.706,0,3.6784,3.6814,3.6827,3.6838,3.6874,3.688,3.6895,3.6918,3.693,3.6948,3.6956,3.6975,3.6986,3.7,3.7023,3.7028,3.7038,3.705,3.7048,3.7047,3.7048,3.7048,3.7029,3.7054,3.7054,3.7054,3.7054,0,3.6767,3.6775,3.6815,3.6823,3.6833,3.6861,3.687,3.6887,3.6908,3.692,3.6943,3.6953,3.6982,3.6996,3.7013,3.7025,3.703,3.7039,3.7044,3.7037,3.7036,3.7043,3.7044,3.7053,3.7053,3.7053,3.7054,0,3.6736,3.6763,3.6779,3.6813,3.6822,3.6828,3.6857,3.6866,3.6885,3.69,3.6904,3.6934,3.6951,3.6976,3.7,3.7012,3.7021,3.7028,3.7014,3.7017,3.7014,3.7014,3.6998,3.6998,3.7023,3.7023,3.7022,0,3.6723,3.6731,3.6767,3.6777,3.6793,3.6808,3.6821,3.6849,3.6861,3.6889,3.6895,3.6914,3.6931,3.6958,3.6981,3.7,3.7008,3.7001,3.7011,3.7004,3.7008,3.7008,3.7009,3.6999,3.6998,3.6998,3.6998,0,3.6699,3.6713,3.6731,3.6754,3.6769,3.6788,3.6808,3.6815,3.6848,3.686,3.6879,3.6893,3.6919,3.6938,3.6961,3.6976,3.6992,3.6995,3.6996,3.6989,3.698,3.6985,3.7008,3.6995,3.6995,3.6995,3.6995,3.6996,3.6677,3.6685,3.6713,3.6733,3.6752,3.677,3.6781,3.6803,3.682,3.6844,3.686,3.6878,3.6902,3.6935,3.6949,3.6964,3.697,3.6971,3.6971,3.6971,3.6969,3.6978,3.6968,3.6968,3.6968,3.6968,3.6968,0,3.6654,3.6674,3.6692,3.6721,3.6737,3.6753,3.6777,3.6788,3.6805,3.6827,3.6844,3.6867,3.6886,3.6912,3.6933,3.694,3.6948,3.6944,3.6944,3.6947,3.6961,3.6959,3.6938,3.6938,3.6938,3.6938,3.6938,3.6938,3.6644,3.666,3.6677,3.6702,3.6721,3.6741,3.6754,3.6771,3.6789,3.6814,3.6831,3.6849,3.6872,3.6895,3.6914,3.6921,3.6928,3.6922,3.6931,3.6943,3.6946,3.6949,3.6947,3.6923,3.6923,3.6916,3.6916,3.6916]}]]